Flag for U.S.A. Weather past 2 weeks in Compton, California, U.S.A.

Now
71 °F

Sunny.


Feels Like: 77 °F
Forecast: 60 / 88 °F
Wind: 5 mph from Southeast

Location: Hawthorne Municipal Airport

Current Time: Mar 27, 2015 at 9:26:13 AM

Latest Report: Mar 27, 2015 at 8:53 AM


Visibility: 10 mi

Pressure: 30.07 "Hg

Humidity: 51%

Dew point: 52 °F

Location of ComptonLocation

Historic Weather in Compton — Graph

°F

Compton temperature yesterday

Maximum temperature yesterday: 89 °F (at 12:53 PM)
Minimum temperature yesterday: 61 °F (at 6:53 AM)
Average temperature yesterday: 75 °F

Past Weeks' High & Low Weather Summary

 TemperatureHumidityPressure
High92 °F (Mar 14, 12:53 PM)87% (Mar 20, 10:53 PM)30.19 "Hg (Mar 20, 10:53 PM)
Low59 °F (Mar 12, 7:53 AM)11% (Mar 14, 12:53 PM)29.87 "Hg (Mar 16, 5:53 PM)
Average70 °F53%30.02 "Hg
* Reported Mar 12 7:53 AM — Mar 27 7:53 AM, Compton, Weather by CustomWeather, © 2015

Note: Actual official high and low records may vary slightly from our data, if they occured in-between our weather recording intervals... More about our weather records

Advertising

Compton weather history for previous 24 hours

 ConditionsComfort  
Time TempWeatherWind HumidityBarometerVisibility
7:53 AM
Fri, Mar 27
68 °FSunny.5 mph44%30.06 "Hg10 mi
6:53 AM65 °FClear.No wind47%30.05 "Hg10 mi
5:53 AM67 °FClear.No wind45%30.03 "Hg10 mi
4:53 AM64 °FClear.No wind61%30.03 "Hg10 mi
3:53 AM65 °FClear.No wind61%30.02 "Hg10 mi
2:53 AM66 °FClear.No wind59%30.03 "Hg10 mi
1:53 AM69 °FClear.No wind53%30.03 "Hg10 mi
12:53 AM69 °FClear.No wind53%30.03 "Hg10 mi
11:53 PM
Thu, Mar 26
69 °FClear.No wind53%30.03 "Hg10 mi
10:53 PM70 °FClear.3 mph51%30.03 "Hg10 mi
9:53 PM73 °FClear.No wind48%30.03 "Hg10 mi
8:53 PM73 °FClear.5 mph44%30.02 "Hg10 mi
7:53 PM76 °FSunny.3 mph37%30.01 "Hg10 mi
6:53 PM78 °FSunny.8 mph24%30.00 "Hg10 mi
5:53 PM83 °FSunny.9 mph15%29.99 "Hg10 mi
4:53 PM83 °FSunny.9 mph19%29.99 "Hg10 mi
3:53 PM85 °FSunny.13 mph16%30.00 "Hg10 mi
2:53 PM85 °FSunny.9 mph24%30.01 "Hg10 mi
2:02 PM87 °FSunny.13 mph26%30.03 "Hg10 mi
1:53 PM87 °FSunny.12 mph29%30.03 "Hg2 mi
12:53 PM89 °FSunny.9 mph16%30.05 "Hg10 mi
11:53 AM88 °FSunny.No wind12%30.08 "Hg10 mi
10:53 AM83 °FSunny.No wind15%30.09 "Hg10 mi
9:53 AM80 °FSunny.3 mph17%30.09 "Hg10 mi
Weather by CustomWeather, © 2015

See weather overviewHow to use our weather pages